Other Public Products
Issued by NWS Grand Forks, ND

Home | Current Version | Previous Version | Graphics & Text | Print | Product List | Glossary On
Versions: 1 2 3 4 5 6 7 8 9 10 11 12 13 14 15 16 17 18 19 20 21 22 23 24 25 26 27 28 29 30 31 32 33 34 35 36 37 38 39 40 41 42 43 44 45 46 47 48 49 50
751
FPUS83 KFGF 210831
OPUFGF
PRAIRIE TO PINES WEATHER ROUNDUP
NATIONAL WEATHER SERVICE EASTERN NORTH DAKOTA/GRAND FORKS ND
200 AM CST TUE FEB 21 2017

 **SATELLITE DATA USED TO AUGMENT SKY COVER AT AUTOMATED STATIONS**
 *****  WEATHER ACROSS EASTERN NORTH DAKOTA  *****

CITY           SKY/WX    TMP DP  RH WIND       PRES   REMARKS
GRAND FORKS    FAIR      31  27  85 SW8       29.73F WCI  23
GRAND FORKS AF FAIR      28  28 100 SW6       29.74R WCI  22
GRAND CITY NWS NOT AVBL
BUXTON         NOT AVBL
DEVILS LAKE    CLOUDY    33  30  88 CALM      29.71F
FARGO          FAIR      34  32  92 S5        29.77S
WAHPETON ARPT  FAIR      32  30  93 SE5       29.79S
$$

 *****  WEATHER ACROSS CENTRAL AND WESTERN NORTH DAKOTA  *****

CITY           SKY/WX    TMP DP  RH WIND       PRES   REMARKS
JAMESTOWN      FAIR      31  30  96 CALM      29.73F
BISMARCK       CLOUDY    37  32  82 SE9       29.70F
MINOT          CLOUDY    38  31  76 CALM      29.66F
MINOT AFB      FAIR      37  31  79 CALM      29.66S
GARRISON         N/A     36  31  82 E3        29.65S
WILLISTON      FAIR      36  31  82 CALM      29.63S
DICKINSON      FAIR      38  26  62 CALM      29.63S
HETTINGER      FAIR      35  26  69 W6        29.70R
$$

 *****  OTHER OBSERVATIONS NORTHEAST NORTH DAKOTA  *****

CITY           SKY/WX    TMP DP  RH WIND       PRES   REMARKS
WALHALLA       NOT AVBL
LANGDON        NOT AVBL
CAVALIER       FOG       27  27 100 CALM      29.73R VSB 1/2
GRAFTON        FOG       27  27 100 SE3       29.75R VSB 1/4
CANDO          NOT AVBL
FORT TOTTEN      N/A     35  35 100 SE3       29.95
ROLLA          CLOUDY    32  32 100 SW6       29.69F
RUGBY          MIX PCPN  32  32 100 E5        29.68F
 ***** THE ABOVE OBSERVATIONS ARE NON NWS ARE NOT QUALITY
        CONTROLLED AND MAY MIS-REPORT RAIN FOR SNOW...
$$

 *****  OTHER OBSERVATIONS SOUTHEAST NORTH DAKOTA *****

CITY           SKY/WX    TMP DP  RH WIND       PRES   REMARKS
COOPERSTOWN    PTSUNNY   32  32 100 SW7       29.74F
VALLEY CITY    PTSUNNY   32  32 100 SW7       29.77S
OAKES          NOT AVBL
GWINNER        FAIR      36  34  93 SW10      29.78S
SHEYENNE NWR     N/A     31  30  97 SW7       29.95  WCI  24
BUFFALO        NOT AVBL
WYNDMERE         N/A     34  34 100 S1          N/A
 ***** THE ABOVE OBSERVATIONS ARE NON NWS ARE NOT QUALITY
       CONTROLLED AND MAY MIS-REPORT RAIN FOR SNOW...
$$

  *****  WEATHER ACROSS NORTHERN MINNESOTA  *****

CITY           SKY/WX    TMP DP  RH WIND       PRES   REMARKS
FLAG ISLAND    FAIR      32  30  93 W9        29.69R WCI  24
WARROAD        CLOUDY    32  28  86 W9        29.72R FOG     WCI  24
ROSEAU         HAZE      32  27  80 W5        29.72S VSB 1/2
HALLOCK        CLOUDY    34  32  93 CALM      29.74R FOG
THF RVR FALLS  FOG       31  30  96 SW7       29.75R VSB 1/4 WCI  24
HALSTAD          N/A     33  32  97 S7          N/A
FOSSTON        FAIR      30  30 100 S6        29.75S FOG     WCI  24
BAUDETTE       CLOUDY    33  31  92 W9        29.70R
WASKISH        CLOUDY    34  34 100 W13       29.73R FOG     WCI  25
CROOKSTON      FAIR      32  30  93 S7        29.76R FOG
$$
  *****  WEATHER ACROSS CENTRAL AND WEST MINNESOTA  *****

CITY           SKY/WX    TMP DP  RH WIND       PRES   REMARKS
BEMIDJI        CLOUDY    33  32  96 SW6       29.75R FOG
PARK RAPIDS    FAIR      31  28  89 S6        29.76S FOG
WADENA         MIX PCPN  32  30  93 SW5       29.79S VSB 1/4
DETROIT LAKES  FOG       32  32 100 S5        29.80R VSB 1/2
MOORHEAD       FAIR      32  30  93 S5        29.79R FOG
FERGUS FALLS   FAIR      32  32 100 SE5       29.84F FOG
ELBOW LAKE     FAIR      31  31 100 E7        29.81F FOG     WCI  24
MORRIS MN      FAIR      32  32 100 S7        29.81F FOG
STAPLES        FOG       34  34 100 SW3       29.80S VSB 1/4
WHEATON        FAIR      36  30  80 S10       29.82F
$$
  *****  WEATHER ELSEWHERE ACROSS MINNESOTA  *****

CITY           SKY/WX    TMP DP  RH WIND       PRES   REMARKS
DULUTH         CLOUDY    37  35  92 W20G29    29.73R
INTRNTL FALLS  CLOUDY    34  31  88 W12       29.69R
ELY            CLOUDY    34  34 100 W13G25    29.70R WCI  25
CLOQUET        CLOUDY    36  34  93 W13G21    29.76R
BRAINERD       CLOUDY    34  33  96 W8        29.81R FOG
HIBBING        CLOUDY    34  34 100 W9        29.74R
ALEXANDRIA     FAIR      32  31  96 SW9       29.82F FOG     WCI  24
SAINT CLOUD    FAIR      32  32 100 S6        29.85R FOG
MINNEAPOLIS    FAIR      38  35  89 W6        29.87R
$$

  *****  WEATHER ACROSS SOUTH DAKOTA  *****

CITY           SKY/WX    TMP DP  RH WIND       PRES   REMARKS
SIOUX FALLS    FAIR      31  31 100 CALM      29.89F FOG
BROOKINGS      FAIR      32  31  96 S8        29.87S WCI  25
WATERTOWN      FAIR      31  30  96 SE6       29.83F
HURON          FAIR      35  33  92 S7        29.83F
SISSETON         N/A     36  31  82 SW13      29.80S
ABERDEEN       FAIR      34  31  88 S10       29.79F
MITCHELL       FAIR      36  33  89 S9        29.87F
PIERRE         FAIR      36  27  69 SE8       29.74F
MOBRIDGE       FAIR      37  30  75 SE12      29.68F
RAPID CITY     FAIR      58  28  32 W23G29    29.76S
$$

  *****  SOME WEATHER IN NEARBY STATES *****

CITY           SKY/WX    TMP DP  RH WIND       PRES   REMARKS
GLASGOW MT     FAIR      35  33  92 S6        29.62R
GREAT FALLS MT FAIR      38  29  70 SW15      29.64S
CHEYENNE WY    FAIR      48  18  30 W28G39    29.98F
SCOTTSBLUFF NE FAIR      39  21  48 N3        29.93S
OMAHA NE       FAIR      36  32  85 NW6       29.95F
DES MOINES IA  FAIR      47  42  83 NW8       29.95R
DAVENPORT IA   CLOUDY    56  55  97 SW6       29.90R
CHICAGO IL     CLOUDY    59  47  64 SW8       29.91R
EAU CLAIRE WI  CLOUDY    42  40  92 W14G20    29.82R
LA CROSSE WI   CLOUDY    47  42  83 NW7       29.87R
$$

  *****  SOME NATIONAL WEATHER *****

CITY           SKY/WX    TMP DP  RH WIND       PRES   REMARKS
LA GUARDIA NY  FAIR      38  13  35 NE8       30.36F
RALEIGH NC     MOCLDY    52  38  58 SE6       30.25S
ATLANTA GA     MOCLDY    58  46  64 E8        30.11F
NEW ORLEANS LA RAIN      61  59  93 NE7       29.97F FOG
OKLAHOMA CITY  FAIR      50  44  80 NW10      29.94R
ALBUQUERQUE NM FAIR      46  30  53 VRB6      30.33R
SALT LAKE CITY FAIR      52  39  61 S28G38    30.02S
LOS ANGELES CA MOCLDY    59  55  87 SE5       30.30F
BOISE ID       CLOUDY    46  41  82 SE18      29.78F
SEATTLE WA     CLOUDY    43  40  89 NE6       29.71F
$$

*** WEATHER ACROSS MANITOBA...SASKATCHEWAN AND ONTARIO ***
                ***ONTARIO***

CITY           SKY/WX    TMP DP  RH WIND       PRES   REMARKS
GERALDTON      LGT RAIN  36  34  93 S14G22    29.50F
THUNDER BAY    FOG       36  36 100 W3        29.52R VSB 1/2
SIOUX LOOKOUT  CLOUDY    34  32  93 W15G24    29.52R WCI  24
TORONTO        MOCLDY    34  19  55 E8        30.19F
BIG TROUT LK   LGT RAIN  34  34 100 S10       29.24F
PICKLE LAKE    NOT AVBL
DRYDEN         CLOUDY    34  32  93 W22G30    29.57R WCI  22
KENORA         LGT RAIN  32  30  93 W9G17     29.64R FOG     WCI  24
$$
                *** MANITOBA***

CITY           SKY/WX    TMP DP  RH WIND       PRES   REMARKS
BRANDON        CLOUDY    34  30  86 W8        29.69R
DAUPHIN        CLOUDY    36  30  80 W9        29.65R
ISLAND LAKE    FLURRIES  32  30  93 W18       29.41R WCI  20
PILOT MOUND      N/A     30  28  93 W3          N/A
THE PAS        CLOUDY    32  27  80 NW10      29.59R WCI  24
THOMPSON       CLOUDY    21  19  93 NW8       29.49R WCI  12
WINNIPEG       MOCLDY    32  30  93 W8        29.70R WCI  25
LYNN LAKE      CLOUDY    18  16  93 NW7       29.53S WCI   8
CHURCHILL      LGT SNOW  10   9  92 NE25      29.53F BLWGSNOWWCI -10
GILLAM         LGT SNOW  19  18  93 NW10      29.40S VSB 5/8 WCI   8
$$
                ***SASKATCHEWAN***

CITY           SKY/WX    TMP DP  RH WIND       PRES   REMARKS
ESTEVAN        CLOUDY    34  32  93 VRB2      29.64S
KINDERSLEY     PTCLDY    30  27  86 E9        29.61F WCI  22
LLOYDMINSTER   CLOUDY    30  27  86 SW5       29.64R
PRINCE ALBERT  CLOUDY    32  30  93 W5        29.64R
REGINA         CLOUDY    32  30  93 E6        29.62S
YORKTON        CLOUDY    32  30  93 W5        29.65R



USA.gov is the U.S. government's official web portal to all federal, state and local government web resources and services.